STARLINK-4403 (53197 NORAD) Tracking and Keplerian Element Data

This shows tracking and keplerian element data for the satellite.

Feedback or suggestion? Click here.




ElementValue
Catalog53197
NameSTARLINK-4403
Epoch Orbit1027
Epoch Day269.7049944
Epoch Year2022
RAAN329.5402
Inclination97.6511
Eccentricity0.0001586
Argument of Perigee117.708
Mean Anonmoly242.4306
Mean Motion15.01267029
Decay Rate2.2E-06
L11 53197U 22084J 22269.70499440 .00000220 00000+0 21695-4 0 9999
L22 53197 97.6511 329.5402 0001586 117.7080 242.4306 15.01267029 10279

Live tracking and technical data element details for STARLINK-4403 (NORAD 53197). STARLINK-4403 can be tracked NOW for your location showing map with azimuth and elevation plus other details from your city location.

Track the satellite on the map from your city or location and see movement details for azimuth, elevation, latitude, longitude, range, height, and movement on the map or in text.







IsCatalogInMostPopularTable: catalog: 53197, numindb: 2
Update: records affected: 1



GetName: 53197 STARLINK-4403

Hit Count: updated at: Thu, 29 Sep 2022 10:23:17 GMT